Location: Sobotiste
(48.7170°N, 17.4000°E)
Time: 05:39:11
(UTC+01:00)

DIWATA 2B (PO-101) - Visible Passes

Search period start: 08 March 2026 00:00
Search period end: 18 March 2026 00:00
Orbit: 559 x 575 km, 98.1° (Epoch: 8 March)

Date Brightness Start Highest point End Pass type
(mag) Time Alt. Az. Time Alt. Az. Time Alt. Az.
8 Mar ? 04:06:25 10° E 04:08:57 16° ENE 04:11:28 10° NNE visible
8 Mar ? 05:39:33 10° S 05:43:33 59° WSW 05:47:33 10° NNW visible
8 Mar ? 18:49:46 10° N 18:53:45 66° WNW 18:57:43 10° SSW visible
9 Mar ? 04:07:18 10° E 04:09:51 16° ENE 04:12:25 10° NNE visible
9 Mar ? 05:40:29 10° S 05:44:28 58° WSW 05:48:28 10° NNW visible
9 Mar ? 18:50:41 10° N 18:54:40 65° WNW 18:58:37 10° SSW visible
10 Mar ? 04:08:10 10° E 04:10:45 17° ENE 04:13:21 10° NNE visible
10 Mar ? 05:41:24 10° S 05:45:23 57° WSW 05:49:23 10° NNW visible
10 Mar ? 18:51:35 10° N 18:55:33 63° WNW 18:59:31 10° SSW visible
11 Mar ? 04:09:02 10° ESE 04:11:39 17° ENE 04:14:16 10° NNE visible
11 Mar ? 18:52:28 10° N 18:56:27 62° WNW 19:00:24 10° SSW visible
12 Mar ? 04:09:53 10° ESE 04:12:32 17° ENE 04:15:10 10° NNE visible
12 Mar ? 18:53:22 10° N 18:57:20 61° WNW 19:01:17 10° SSW visible
13 Mar ? 04:10:44 10° ESE 04:13:24 17° ENE 04:16:04 10° NNE visible
13 Mar ? 18:54:14 10° N 18:58:12 60° WNW 19:02:09 10° SSW visible
14 Mar ? 04:11:34 10° ESE 04:14:16 17° ENE 04:16:57 10° NNE visible
14 Mar ? 18:55:06 10° N 18:59:04 59° WNW 19:03:00 10° SSW visible
15 Mar ? 04:12:24 10° ESE 04:15:07 18° ENE 04:17:49 10° NNE visible
15 Mar ? 18:55:57 10° N 18:59:54 58° WNW 19:03:51 10° SSW visible
16 Mar ? 04:13:13 10° ESE 04:15:57 18° ENE 04:18:42 10° NNE visible
16 Mar ? 18:56:48 10° N 19:00:45 58° WNW 19:04:40 10° SSW visible
17 Mar ? 04:14:01 10° ESE 04:16:47 18° ENE 04:19:32 10° NNE visible
17 Mar ? 18:57:37 10° N 19:01:34 57° WNW 19:05:30 10° SSW visible
